#timestamp,LO_Frequency,Hit,StdDev 
1501444815.2,286047000.8,N,1.0
1501444835.0,286047001.1,N,1.0
1501444835.9,286047001.1,N,1.0
1501444855.8,286046998.2,N,1.2
1501444875.6,286046998.1,N,1.3
1501444895.4,286046998.2,N,1.3
1501444915.3,286047001.1,N,1.3
1501444935.1,286047001.2,N,1.3
1501444955.9,286047000.0,N,1.3
1501444975.7,286046998.3,N,1.3
1501444995.5,286046998.4,N,1.3
1501445015.4,286047000.6,N,1.3
1501445035.2,286046999.3,N,1.2
1501445055.1,286046999.3,N,1.2
1501445056.0,286046999.3,N,1.2
1501445075.8,286046998.7,N,1.2
1501445095.6,286046996.5,N,1.3
1501445115.5,286046999.1,N,1.3
1501445135.3,286046999.1,N,1.3
1501445155.1,286046997.7,N,1.3
1501445175.9,286046996.9,N,1.4
1501445195.7,286046998.6,N,1.4
1501445215.6,286047001.1,N,1.4
1501445235.4,286047000.5,N,1.4
1501445255.2,286047000.2,N,1.3
1501445275.1,286047000.3,N,1.3
1501445276.0,286047000.3,N,1.3
1501445295.8,286046999.7,N,1.3
1501445315.7,286047002.3,N,1.4
1501445335.5,286047000.9,N,1.4
1501445355.3,286047000.3,N,1.4
1501445375.2,286046999.9,N,1.3
1501445395.0,286047001.4,N,1.4
1501445395.9,286047001.4,N,1.4
1501445415.8,286047001.9,N,1.4
1501445435.6,286047002.0,N,1.4
1501445455.4,286047004.0,N,1.6
1501445475.3,286047004.3,N,1.8
1501445495.1,286047004.0,N,1.9
1501445515.9,286047004.2,N,2.0
1501445535.7,286047004.0,N,2.1
1501445555.5,286047004.3,N,2.2
1501445575.4,286047004.2,N,2.2
1501445595.2,286047004.3,N,2.3
1501445615.1,286047003.6,N,2.3
1501445616.0,286047003.6,N,2.3
1501445635.8,286047001.3,N,2.1
1501445655.6,286047003.6,N,2.1
1501445675.5,286047004.4,N,2.1
1501445695.3,286047001.8,N,2.0
1501445715.2,286047004.0,N,1.8
1501445735.9,286047001.8,N,1.6
1501445755.7,286047001.4,N,1.6
1501445775.6,286047001.3,N,1.6
1501445795.4,286047003.2,N,1.5
1501445815.2,286047002.9,N,1.5
1501445835.1,286047005.4,P,1.4
1501445836.0,286047005.4,P,1.3
1501445855.8,286047001.9,N,1.6
1501445875.7,286047002.0,N,1.6
1501445895.5,286047001.5,N,1.6
1501445915.4,286047001.8,N,1.6
1501445935.2,286047001.6,N,1.5
1501445955.0,286047001.6,N,1.5
1501445955.9,286047001.6,N,1.5
1501445975.8,286047000.2,N,1.5
1501445995.6,286047000.3,N,1.6
1501446015.4,286047002.7,N,1.5
1501446035.3,286047002.5,N,1.5
1501446055.1,286047002.2,N,1.4
1501446075.9,286047001.8,N,1.4
1501446095.7,286047002.0,N,1.3
1501446115.5,286047004.4,P,1.1
1501446135.4,286047002.8,N,0.9
1501446155.2,286047000.0,N,1.6
1501446175.1,286047000.9,N,1.5
1501446176.0,286047000.9,N,1.5
1501446195.8,286046998.2,N,1.9
1501446215.6,286046998.4,N,2.0
1501446235.5,286046998.4,N,2.0
1501446255.3,286046999.9,N,2.0
1501446275.2,286047004.3,N,2.1
1501446295.9,286047003.0,N,2.1
1501446315.7,286047001.3,N,2.0
1501446335.6,286047000.1,N,2.0
1501446355.4,286047000.9,N,1.9
1501446375.3,286046998.3,N,2.0
1501446395.1,286046998.8,N,2.0
1501446415.8,286046999.2,N,2.0
1501446435.7,286046999.4,N,1.9
1501446455.5,286046996.6,N,2.1
1501446475.4,286046999.2,N,2.0
1501446495.2,286046998.5,N,2.0
1501446515.0,286046999.4,N,2.0
1501446515.9,286046999.4,N,2.0
1501446535.8,286046999.6,N,1.9
1501446555.6,286046999.4,N,1.9
1501446575.5,286046998.8,N,1.9
1501446595.3,286046999.6,N,1.8
1501446615.1,286046998.9,N,1.8
1501446635.9,286046998.4,N,1.8
1501446655.7,286046997.0,N,1.8
1501446675.6,286046997.0,N,1.7
1501446695.4,286046996.7,N,1.7
1501446715.3,286046996.6,N,1.7
1501446735.1,286046998.9,N,1.7
1501446736.0,286046998.9,N,1.7
1501446755.8,286046998.8,N,1.7
1501446775.7,286046998.2,N,1.7
1501446795.5,286046998.1,N,1.7
1501446815.3,286046998.4,N,1.7
1501446835.2,286046999.6,N,1.4
1501446855.0,286046999.2,N,1.1
1501446855.9,286046999.2,N,1.0
1501446875.8,286046996.6,P,1.1
1501446895.6,286046999.2,N,1.1
1501446915.5,286046996.6,P,1.2
1501446935.3,286046996.5,N,1.2
1501446955.1,286047002.5,N,2.1
1501446975.9,286047003.8,N,2.8
1501446995.7,286047001.3,N,2.7
1501447015.5,286047002.7,N,2.7
1501447035.4,286047002.8,N,2.7
1501447055.2,286046999.9,N,2.6
1501447075.1,286047000.1,N,2.5
1501447076.0,286047000.1,N,2.4
1501447095.8,286047000.0,N,2.3
1501447115.6,286046998.1,N,2.3
1501447135.5,286046998.7,N,2.2
1501447155.3,286047001.0,N,2.2
1501447175.2,286046998.4,N,2.2
1501447195.0,286046998.6,N,2.1
1501447195.9,286046998.6,N,2.1
1501447215.8,286046999.4,N,2.0
1501447235.6,286046998.8,N,2.0
1501447255.4,286046999.2,N,1.9
1501447275.3,286046996.5,N,2.0
1501447295.1,286046999.4,N,2.0
1501447315.8,286046999.4,N,1.9
1501447335.7,286046999.3,N,1.9
1501447355.5,286046998.8,N,1.9
1501447375.4,286046998.7,N,1.8
1501447395.2,286046998.7,N,1.8
1501447415.0,286046997.0,N,1.9
1501447415.9,286046997.0,N,1.8
1501447435.8,286046999.5,N,1.8
1501447455.6,286046997.4,N,1.8
1501447475.5,286046999.2,N,1.7
1501447495.3,286046997.8,N,1.7
1501447515.1,286046997.4,N,1.5
1501447535.9,286046995.1,P,2.0
1501447555.7,286046996.8,N,1.7
1501447575.6,286046997.9,N,1.5
1501447595.4,286046997.4,N,1.3
1501447615.2,286046997.4,N,1.2
1501447635.1,286046997.3,N,1.1
1501447636.0,286046997.3,N,1.0
1501447655.8,286046996.5,P,0.4
1501447675.7,286047002.4,P,2.6
1501447695.5,286047002.1,N,2.7
1501447715.4,286047000.2,N,2.4
1501447735.2,286047000.5,N,2.2
1501447755.0,286047000.5,N,2.1
1501447755.9,286047000.5,N,2.0
1501447775.8,286047000.6,N,1.9
1501447795.6,286047000.5,N,1.8
1501447815.5,286047001.0,N,1.7
1501447835.3,286047001.2,N,1.7
1501447855.1,286047001.2,N,1.6
1501447875.9,286046998.5,N,1.6
1501447895.7,286047001.2,N,1.6
1501447915.5,286047001.1,N,1.5
1501447935.4,286047001.1,N,1.5
1501447955.2,286047001.0,N,1.5
1501447975.1,286047001.1,N,1.4
1501447976.0,286047001.1,N,1.4
1501447995.8,286047001.0,N,1.4
1501448015.6,286047001.2,N,1.4
1501448035.5,286047001.2,N,1.3
1501448055.3,286047000.4,N,1.3
1501448075.2,286047000.4,N,1.3
1501448095.9,286046998.1,N,1.3
1501448115.7,286047001.2,N,1.3
1501448135.6,286047000.8,N,1.3
1501448155.4,286047001.2,N,1.3
1501448175.3,286046999.0,N,1.3
1501448195.1,286046999.4,N,1.2
1501448196.0,286046999.4,N,0.9
1501448215.8,286046999.0,N,0.9
1501448235.7,286046996.6,P,2.0
1501448255.5,286046997.2,N,1.7
1501448275.4,286046997.9,N,1.5
1501448295.2,286046996.6,N,1.5
1501448315.0,286046997.0,N,1.4
1501448315.9,286046997.0,N,1.3
1501448335.8,286046997.7,N,1.2
1501448355.6,286046996.7,N,1.2
1501448375.5,286046996.6,N,1.1
1501448395.3,286046996.6,P,0.4
